Williston, ND

2:52 AM CDT on July 23, 2017 (GMT -0500)
Sloulin International

Weather History for KISN - May, 2014

Change the Weather History Date:

Friday, May 9, 2014

  Actual Average Record
Temperature  
Mean Temperature 48 °F 52 °F  
Max Temperature 68 °F 66 °F 90 °F (1977)
Min Temperature 27 °F 38 °F 21 °F (1909)
Degree Days  
Heating Degree Days 17 13  
Month to date heating degree days 161 131  
Since 1 July heating degree days 9039 8656  
Cooling Degree Days 0 0  
Month to date cooling degree days 0 0  
Year to date cooling degree days 0 1  
Moisture  
Dew Point 27 °F    
Average Humidity 53    
Maximum Humidity 85    
Minimum Humidity 20    
Precipitation  
Precipitation 0.00 in 0.05 in 1.73 in (1953)
Month to date precipitation 0.24 0.45  
Year to date precipitation 2.71 3.14  
Sea Level Pressure  
Sea Level Pressure 29.73 in    
Wind  
Wind Speed 5 mph (SSE)    
Max Wind Speed 14 mph    
Max Gust Speed 20 mph    
Visibility 10 miles    
Events      
T = Trace of Precipitation, MM = Missing Value Source: NWS Daily Summary

Daily Weather History Graph

Daily Weather History Graph

Search for Another Location

Airport or City:

Trip Planner

Search our weather history database for the weather conditions in past years. The results will help you decide how hot, cold, wet, or windy it might be!

Date:

Astronomy

May. 09, 2014 Rise Set
Actual Time 6:23 AM CDT 9:19 PM CDT
Civil Twilight 5:47 AM CDT 9:55 PM CDT
Nautical Twilight 5:00 AM CDT 10:42 PM CDT
Astronomical Twilight 4:04 AM CDT 11:39 PM CDT
Moon 3:55 PM CDT (5/9) 3:52 AM CDT (5/9)
Length of Visible Light 16h 08m
Length of Day
14h 56m
Waxing Gibbous, 74% of the Moon is Illuminated
May 9
Waxing Gibbous
May 14
Full
May 21
Last Quarter
May 28
New
Jun 5
First Quarter

Hourly Weather History & Observations

Time (CDT) Temp. Windchill Dew Point Humidity Pressure Visibility Wind Dir Wind Speed Gust Speed Precip Events Conditions
12:52 AM 30.9 °F 27.5 °F 25.0 °F 79% 29.86 in 10.0 mi North 3.5 mph - N/A   Clear
1:52 AM 30.0 °F - 24.1 °F 79% 29.85 in 10.0 mi Calm Calm - N/A   Clear
2:52 AM 30.9 °F - 24.1 °F 76% 29.83 in 10.0 mi Calm Calm - N/A   Clear
3:52 AM 28.0 °F - 24.1 °F 85% 29.82 in 10.0 mi Calm Calm - N/A   Clear
4:52 AM 27.0 °F - 23.0 °F 85% 29.81 in 10.0 mi Calm Calm - N/A   Clear
5:52 AM 28.9 °F 25.2 °F 24.1 °F 82% 29.80 in 10.0 mi South 3.5 mph - N/A   Clear
6:52 AM 30.9 °F - 25.0 °F 79% 29.79 in 9.0 mi Calm Calm - N/A   Clear
7:52 AM 39.0 °F - 32.0 °F 76% 29.78 in 6.0 mi Calm Calm - N/A   Haze
8:52 AM 44.1 °F 40.8 °F 30.0 °F 58% 29.78 in 10.0 mi South 5.8 mph - N/A   Clear
9:52 AM 50.0 °F - 32.0 °F 50% 29.73 in 10.0 mi South 4.6 mph - N/A   Clear
10:52 AM 55.0 °F - 33.1 °F 43% 29.75 in 10.0 mi SSW 6.9 mph - N/A   Clear
11:52 AM 59.0 °F - 30.0 °F 33% 29.74 in 10.0 mi SSE 9.2 mph - N/A   Clear
12:52 PM 62.1 °F - 30.0 °F 30% 29.71 in 10.0 mi South 8.1 mph - N/A   Clear
1:52 PM 63.0 °F - 28.0 °F 27% 29.70 in 10.0 mi South 9.2 mph - N/A   Clear
2:52 PM 64.9 °F - 27.0 °F 24% 29.68 in 10.0 mi SSE 8.1 mph 18.4 mph N/A   Clear
3:52 PM 66.0 °F - 25.0 °F 21% 29.67 in 10.0 mi SSE 11.5 mph - N/A   Clear
4:52 PM 66.0 °F - 25.0 °F 21% 29.65 in 10.0 mi SSE 5.8 mph - N/A   Clear
5:52 PM 66.9 °F - 25.0 °F 21% 29.64 in 10.0 mi SSW 6.9 mph - N/A   Clear
6:52 PM 66.9 °F - 25.0 °F 21% 29.64 in 10.0 mi WSW 8.1 mph - N/A   Clear
7:52 PM 64.0 °F - 25.0 °F 23% 29.63 in 10.0 mi SSE 9.2 mph - N/A   Clear
8:52 PM 62.1 °F - 26.1 °F 25% 29.63 in 10.0 mi SE 5.8 mph - N/A   Clear
9:52 PM 57.2 °F - 26.6 °F 31% 29.63 in 10.0 mi SE 4.6 mph - N/A   Clear
10:52 PM 55.0 °F - 30.9 °F 40% 29.65 in 10.0 mi SE 3.5 mph - N/A   Clear
11:52 PM 53.1 °F - 32.0 °F 45% 29.64 in 10.0 mi SSE 3.5 mph - N/A   Clear